Time,TemperatureF,DewpointF,PressureIn,WindDirection,WindDirectionDegrees,WindSpeedMPH,WindSpeedGustMPH,Humidity,HourlyPrecipIn,Conditions,Clouds,dailyrainin,SolarRadiationWatts/m^2,SoftwareType,DateUTC
2013-05-22 00:02:00,63.5,62.3,29.86,West,278,0.0,0.0,96,0.25,,,0.00,0.00,VWS V14.01,2013-05-22 05:02:00,
2013-05-22 00:07:00,63.4,62.2,29.86,West,278,0.0,0.0,96,0.27,,,0.02,0.00,VWS V14.01,2013-05-22 05:07:00,
2013-05-22 00:12:00,63.4,62.2,29.85,West,278,0.0,0.0,96,0.23,,,0.02,0.00,VWS V14.01,2013-05-22 05:12:00,
2013-05-22 00:17:00,63.3,62.1,29.84,West,277,2.0,2.0,96,0.23,,,0.02,0.00,VWS V14.01,2013-05-22 05:17:00,
2013-05-22 00:22:00,63.3,62.1,29.83,West,278,1.0,3.0,96,0.19,,,0.03,0.00,VWS V14.01,2013-05-22 05:22:00,
2013-05-22 00:27:00,63.3,62.1,29.82,SE,126,1.0,4.0,96,0.19,,,0.03,0.00,VWS V14.01,2013-05-22 05:27:00,
2013-05-22 00:32:00,63.1,61.9,29.81,ESE,111,3.0,6.0,96,0.17,,,0.04,0.00,VWS V14.01,2013-05-22 05:32:00,
2013-05-22 00:37:00,63.1,61.9,29.79,ESE,109,7.0,8.0,96,0.17,,,0.04,0.00,VWS V14.01,2013-05-22 05:37:00,
2013-05-22 00:42:00,63.2,62.0,29.79,ESE,121,7.0,11.0,96,0.12,,,0.04,0.00,VWS V14.01,2013-05-22 05:42:00,
2013-05-22 00:47:00,63.2,62.0,29.80,SE,126,0.0,11.0,96,0.12,,,0.04,0.00,VWS V14.01,2013-05-22 05:47:00,
2013-05-22 00:52:00,63.2,62.0,29.82,SE,127,3.0,3.0,96,0.09,,,0.05,0.00,VWS V14.01,2013-05-22 05:52:00,
2013-05-22 00:57:00,63.3,62.1,29.79,ESE,115,4.0,7.0,96,0.09,,,0.05,0.00,VWS V14.01,2013-05-22 05:57:00,
2013-05-22 01:02:00,63.3,62.1,29.79,SSE,157,0.0,7.0,96,0.06,,,0.06,0.00,VWS V14.01,2013-05-22 06:02:00,
2013-05-22 01:07:00,63.4,62.2,29.79,SE,125,4.0,9.0,96,0.06,,,0.06,0.00,VWS V14.01,2013-05-22 06:07:00,
2013-05-22 01:12:00,63.4,62.2,29.80,ESE,116,3.0,8.0,96,0.04,,,0.06,0.00,VWS V14.01,2013-05-22 06:12:00,
2013-05-22 01:17:00,63.4,62.2,29.80,SE,138,1.0,9.0,96,0.05,,,0.07,0.00,VWS V14.01,2013-05-22 06:17:00,
2013-05-22 01:22:00,63.4,62.2,29.80,East,101,2.0,6.0,96,0.04,,,0.07,0.00,VWS V14.01,2013-05-22 06:22:00,
2013-05-22 01:27:00,63.3,62.1,29.76,SSE,155,8.0,13.0,96,0.04,,,0.07,0.00,VWS V14.01,2013-05-22 06:27:00,
2013-05-22 01:32:00,63.3,62.1,29.77,SSE,166,4.0,10.0,96,0.03,,,0.07,0.00,VWS V14.01,2013-05-22 06:32:00,
2013-05-22 01:37:00,63.3,62.1,29.76,ESE,117,4.0,10.0,96,0.03,,,0.07,0.00,VWS V14.01,2013-05-22 06:37:00,
2013-05-22 01:42:00,63.3,62.1,29.76,East,92,6.0,13.0,96,0.03,,,0.07,0.00,VWS V14.01,2013-05-22 06:42:00,
2013-05-22 01:47:00,63.2,62.0,29.75,ENE,76,2.0,13.0,96,0.03,,,0.07,0.00,VWS V14.01,2013-05-22 06:47:00,
2013-05-22 01:52:00,63.2,62.0,29.74,SSE,163,3.0,12.0,96,0.03,,,0.07,0.00,VWS V14.01,2013-05-22 06:52:00,
2013-05-22 01:58:00,63.1,61.9,29.74,SE,146,3.0,12.0,96,0.03,,,0.07,0.00,VWS V14.01,2013-05-22 06:58:00,
2013-05-22 02:03:00,63.0,61.8,29.74,SSW,211,10.0,14.0,96,0.02,,,0.07,0.00,VWS V14.01,2013-05-22 07:03:00,
2013-05-22 02:08:00,63.0,61.8,29.75,SSE,148,4.0,14.0,96,0.02,,,0.07,0.00,VWS V14.01,2013-05-22 07:08:00,
2013-05-22 02:13:00,63.1,61.9,29.74,SE,127,2.0,8.0,96,0.01,,,0.07,0.00,VWS V14.01,2013-05-22 07:13:00,
2013-05-22 02:18:00,63.1,61.9,29.73,East,99,7.0,13.0,96,0.01,,,0.07,0.00,VWS V14.01,2013-05-22 07:18:00,
2013-05-22 02:23:00,63.1,61.9,29.73,SE,125,3.0,10.0,96,0.00,,,0.07,0.00,VWS V14.01,2013-05-22 07:23:00,
2013-05-22 02:28:00,63.1,61.9,29.73,South,180,2.0,11.0,96,0.00,,,0.07,0.00,VWS V14.01,2013-05-22 07:28:00,
2013-05-22 02:33:00,63.1,61.9,29.74,ESE,109,5.0,9.0,96,0.00,,,0.07,0.00,VWS V14.01,2013-05-22 07:33:00,
2013-05-22 02:38:00,63.1,61.9,29.75,SE,134,0.0,9.0,96,0.00,,,0.07,0.00,VWS V14.01,2013-05-22 07:38:00,
2013-05-22 02:43:00,63.1,61.9,29.76,SSE,159,1.0,5.0,96,0.00,,,0.07,0.00,VWS V14.01,2013-05-22 07:43:00,
2013-05-22 02:48:00,63.1,61.9,29.76,SE,131,2.0,5.0,96,0.00,,,0.07,0.00,VWS V14.01,2013-05-22 07:48:00,
2013-05-22 02:53:00,63.1,61.9,29.76,SE,130,0.0,1.0,96,0.00,,,0.07,0.00,VWS V14.01,2013-05-22 07:53:00,
2013-05-22 02:58:00,63.2,62.0,29.78,SE,131,2.0,2.0,96,0.00,,,0.07,0.00,VWS V14.01,2013-05-22 07:58:00,
2013-05-22 03:03:00,63.2,62.0,29.79,West,279,5.0,5.0,96,0.00,,,0.07,0.00,VWS V14.01,2013-05-22 08:03:00,
2013-05-22 03:08:00,63.3,62.1,29.79,West,279,5.0,5.0,96,0.00,,,0.07,0.00,VWS V14.01,2013-05-22 08:08:00,
2013-05-22 03:13:00,63.2,62.0,29.79,WNW,295,5.0,8.0,96,0.00,,,0.07,0.00,VWS V14.01,2013-05-22 08:13:00,
2013-05-22 03:18:00,63.2,62.0,29.80,WNW,286,11.0,11.0,96,0.00,,,0.07,0.00,VWS V14.01,2013-05-22 08:18:00,
2013-05-22 03:23:00,63.1,61.9,29.81,WNW,296,5.0,12.0,96,0.00,,,0.07,0.00,VWS V14.01,2013-05-22 08:23:00,
2013-05-22 03:28:00,63.1,61.9,29.81,WNW,288,0.0,12.0,96,0.00,,,0.07,0.00,VWS V14.01,2013-05-22 08:28:00,
2013-05-22 03:33:00,63.0,61.8,29.81,West,279,3.0,7.0,96,0.00,,,0.07,0.00,VWS V14.01,2013-05-22 08:33:00,
2013-05-22 03:38:00,63.0,61.8,29.82,WNW,288,0.0,7.0,96,0.00,,,0.07,0.00,VWS V14.01,2013-05-22 08:38:00,
2013-05-22 03:43:00,62.9,61.8,29.81,WNW,288,0.0,6.0,96,0.00,,,0.07,0.00,VWS V14.01,2013-05-22 08:43:00,
2013-05-22 03:48:00,62.9,61.8,29.82,WNW,290,3.0,6.0,96,0.00,,,0.07,0.00,VWS V14.01,2013-05-22 08:48:00,
2013-05-22 03:53:00,62.8,61.7,29.82,WNW,290,3.0,6.0,96,0.00,,,0.07,0.00,VWS V14.01,2013-05-22 08:53:00,
2013-05-22 03:58:00,62.8,61.7,29.81,WNW,290,0.0,6.0,96,0.00,,,0.07,0.00,VWS V14.01,2013-05-22 08:58:00,
2013-05-22 04:03:00,62.8,61.7,29.82,WNW,290,0.0,2.0,96,0.00,,,0.07,0.00,VWS V14.01,2013-05-22 09:03:00,
2013-05-22 04:08:00,62.9,61.8,29.82,WNW,290,0.0,3.0,96,0.00,,,0.07,0.00,VWS V14.01,2013-05-22 09:08:00,
2013-05-22 04:13:00,62.9,61.8,29.82,WNW,290,0.0,0.0,96,0.00,,,0.07,0.00,VWS V14.01,2013-05-22 09:13:00,
2013-05-22 04:18:00,62.9,61.8,29.82,WNW,290,0.0,1.0,96,0.00,,,0.07,0.00,VWS V14.01,2013-05-22 09:18:00,
2013-05-22 04:23:00,62.8,61.7,29.82,WNW,290,0.0,0.0,96,0.00,,,0.07,0.00,VWS V14.01,2013-05-22 09:23:00,
2013-05-22 04:28:00,62.8,61.7,29.82,WNW,290,0.0,1.0,96,0.00,,,0.07,0.00,VWS V14.01,2013-05-22 09:28:00,
2013-05-22 04:33:00,62.7,61.5,29.82,WNW,290,0.0,2.0,96,0.00,,,0.07,0.00,VWS V14.01,2013-05-22 09:33:00,
2013-05-22 04:38:00,62.7,61.5,29.82,WNW,290,2.0,3.0,96,0.00,,,0.07,0.00,VWS V14.01,2013-05-22 09:38:00,
2013-05-22 04:43:00,62.7,61.5,29.83,WNW,290,0.0,1.0,96,0.00,,,0.07,0.00,VWS V14.01,2013-05-22 09:43:00,
2013-05-22 04:48:00,62.8,61.7,29.82,WNW,290,0.0,1.0,96,0.00,,,0.07,0.00,VWS V14.01,2013-05-22 09:48:00,
2013-05-22 04:53:00,62.8,61.7,29.82,WNW,290,0.0,0.0,96,0.00,,,0.07,0.00,VWS V14.01,2013-05-22 09:53:00,
2013-05-22 04:58:00,62.8,61.7,29.83,WNW,290,0.0,1.0,96,0.00,,,0.07,0.00,VWS V14.01,2013-05-22 09:58:00,
2013-05-22 05:03:00,62.9,61.8,29.83,WNW,290,0.0,1.0,96,0.00,,,0.07,0.00,VWS V14.01,2013-05-22 10:03:00,
2013-05-22 05:08:00,62.9,61.8,29.83,WNW,290,0.0,1.0,96,0.00,,,0.07,0.00,VWS V14.01,2013-05-22 10:08:00,
2013-05-22 05:13:00,62.9,61.8,29.83,WNW,290,0.0,0.0,96,0.00,,,0.07,0.00,VWS V14.01,2013-05-22 10:13:00,
2013-05-22 05:18:00,63.0,61.8,29.83,WNW,290,0.0,2.0,96,0.00,,,0.07,0.00,VWS V14.01,2013-05-22 10:18:00,
2013-05-22 05:23:00,63.0,61.8,29.83,WNW,290,0.0,0.0,96,0.00,,,0.07,0.00,VWS V14.01,2013-05-22 10:23:00,
2013-05-22 05:28:00,63.0,61.8,29.82,WNW,290,0.0,1.0,96,0.00,,,0.07,0.00,VWS V14.01,2013-05-22 10:28:00,
2013-05-22 05:33:00,63.0,61.8,29.83,WNW,290,0.0,0.0,96,0.00,,,0.07,0.00,VWS V14.01,2013-05-22 10:33:00,
2013-05-22 05:38:00,63.0,61.8,29.83,WNW,290,0.0,1.0,96,0.00,,,0.07,0.00,VWS V14.01,2013-05-22 10:38:00,
2013-05-22 05:43:00,63.0,61.8,29.83,WNW,290,0.0,1.0,96,0.00,,,0.07,0.00,VWS V14.01,2013-05-22 10:43:00,
2013-05-22 05:48:00,62.9,61.8,29.82,WNW,290,1.0,2.0,96,0.00,,,0.07,0.00,VWS V14.01,2013-05-22 10:48:00,
2013-05-22 05:53:00,62.9,61.8,29.83,ESE,103,0.0,3.0,96,0.00,,,0.07,0.00,VWS V14.01,2013-05-22 10:53:00,
2013-05-22 05:58:00,62.9,61.8,29.83,ESE,103,0.0,3.0,96,0.00,,,0.07,5.00,VWS V14.01,2013-05-22 10:58:00,
2013-05-22 06:03:00,62.9,61.8,29.82,ESE,102,3.0,3.0,96,0.00,,,0.07,9.00,VWS V14.01,2013-05-22 11:03:00,
2013-05-22 06:08:00,62.8,61.7,29.82,South,176,1.0,3.0,96,0.00,,,0.07,14.00,VWS V14.01,2013-05-22 11:08:00,
2013-05-22 06:13:00,62.9,61.8,29.82,South,176,0.0,2.0,96,0.00,,,0.07,23.00,VWS V14.01,2013-05-22 11:13:00,
2013-05-22 06:18:00,62.9,61.8,29.82,South,175,0.0,3.0,96,0.00,,,0.07,25.00,VWS V14.01,2013-05-22 11:18:00,
2013-05-22 06:23:00,63.0,61.8,29.82,South,175,0.0,2.0,96,0.00,,,0.07,26.00,VWS V14.01,2013-05-22 11:23:00,
2013-05-22 06:28:00,63.0,61.8,29.82,South,175,4.0,4.0,96,0.00,,,0.07,30.00,VWS V14.01,2013-05-22 11:28:00,
2013-05-22 06:33:00,63.0,61.8,29.82,South,176,2.0,5.0,96,0.00,,,0.07,23.00,VWS V14.01,2013-05-22 11:33:00,
2013-05-22 06:38:00,63.1,61.9,29.82,South,176,0.0,5.0,96,0.00,,,0.07,21.00,VWS V14.01,2013-05-22 11:38:00,
2013-05-22 06:43:00,63.1,61.9,29.82,South,177,1.0,2.0,96,0.00,,,0.07,23.00,VWS V14.01,2013-05-22 11:43:00,
2013-05-22 06:48:00,63.1,61.9,29.82,SSW,198,1.0,5.0,96,0.00,,,0.07,28.00,VWS V14.01,2013-05-22 11:48:00,
2013-05-22 06:53:00,63.2,62.0,29.82,SSW,199,0.0,4.0,96,0.00,,,0.07,32.00,VWS V14.01,2013-05-22 11:53:00,
2013-05-22 06:58:00,63.3,62.1,29.83,SSW,202,3.0,4.0,96,0.00,,,0.07,23.00,VWS V14.01,2013-05-22 11:58:00,
2013-05-22 07:03:00,63.3,62.1,29.83,SW,217,0.0,3.0,96,0.00,,,0.07,16.00,VWS V14.01,2013-05-22 12:03:00,
2013-05-22 07:08:00,63.3,62.1,29.83,SW,214,1.0,4.0,96,0.00,,,0.07,16.00,VWS V14.01,2013-05-22 12:08:00,
2013-05-22 07:13:00,63.2,62.0,29.83,SW,214,0.0,4.0,96,0.00,,,0.07,30.00,VWS V14.01,2013-05-22 12:13:00,
2013-05-22 07:18:00,63.3,62.1,29.83,SW,214,1.0,4.0,96,0.00,,,0.07,40.00,VWS V14.01,2013-05-22 12:18:00,
2013-05-22 07:23:00,63.4,62.2,29.83,SSW,210,4.0,4.0,96,0.00,,,0.07,56.00,VWS V14.01,2013-05-22 12:23:00,
2013-05-22 07:28:00,63.4,62.2,29.83,WSW,249,0.0,6.0,96,0.00,,,0.07,58.00,VWS V14.01,2013-05-22 12:28:00,
2013-05-22 07:33:00,63.5,62.3,29.83,SSW,213,0.0,4.0,96,0.00,,,0.07,62.00,VWS V14.01,2013-05-22 12:33:00,
2013-05-22 07:38:00,63.5,62.3,29.83,SSW,211,0.0,5.0,96,0.00,,,0.07,60.00,VWS V14.01,2013-05-22 12:38:00,
2013-05-22 07:43:00,63.5,62.3,29.83,South,180,0.0,6.0,96,0.00,,,0.07,76.00,VWS V14.01,2013-05-22 12:43:00,
2013-05-22 07:48:00,63.6,62.4,29.83,SSW,209,3.0,6.0,96,0.00,,,0.07,95.00,VWS V14.01,2013-05-22 12:48:00,
2013-05-22 07:53:00,63.7,62.5,29.83,SSW,207,4.0,4.0,96,0.00,,,0.07,102.00,VWS V14.01,2013-05-22 12:53:00,
2013-05-22 07:58:00,63.9,62.7,29.83,SW,221,3.0,5.0,96,0.00,,,0.07,116.00,VWS V14.01,2013-05-22 12:58:00,
2013-05-22 08:03:00,64.0,62.8,29.83,SW,217,0.0,4.0,96,0.00,,,0.07,113.00,VWS V14.01,2013-05-22 13:03:00,
2013-05-22 08:08:00,64.2,63.0,29.83,SSW,206,3.0,5.0,96,0.00,,,0.07,93.00,VWS V14.01,2013-05-22 13:08:00,
2013-05-22 08:13:00,64.2,63.0,29.83,SW,216,1.0,4.0,96,0.00,,,0.07,88.00,VWS V14.01,2013-05-22 13:13:00,
2013-05-22 08:18:00,64.2,63.0,29.83,SSW,197,0.0,7.0,96,0.00,,,0.07,76.00,VWS V14.01,2013-05-22 13:18:00,
2013-05-22 08:23:00,64.2,63.0,29.83,SSW,194,7.0,7.0,96,0.00,,,0.07,109.00,VWS V14.01,2013-05-22 13:23:00,
2013-05-22 08:28:00,64.3,63.1,29.83,SSE,167,0.0,9.0,96,0.00,,,0.07,139.00,VWS V14.01,2013-05-22 13:28:00,
2013-05-22 08:33:00,64.5,63.3,29.83,South,175,0.0,6.0,96,0.00,,,0.07,186.00,VWS V14.01,2013-05-22 13:33:00,
2013-05-22 08:38:00,64.7,63.5,29.83,SSW,202,0.0,8.0,96,0.00,,,0.07,185.00,VWS V14.01,2013-05-22 13:38:00,
2013-05-22 08:43:00,65.0,63.8,29.83,SSW,194,1.0,4.0,96,0.00,,,0.07,137.00,VWS V14.01,2013-05-22 13:43:00,
2013-05-22 08:48:00,65.1,63.6,29.83,SSW,194,3.0,7.0,95,0.00,,,0.07,149.00,VWS V14.01,2013-05-22 13:48:00,
2013-05-22 08:53:00,65.2,63.7,29.83,SSE,162,2.0,7.0,95,0.00,,,0.07,167.00,VWS V14.01,2013-05-22 13:53:00,
2013-05-22 08:58:00,65.4,63.9,29.83,SSW,211,0.0,7.0,95,0.00,,,0.07,151.00,VWS V14.01,2013-05-22 13:58:00,
2013-05-22 09:03:00,65.6,64.1,29.83,SSW,210,2.0,8.0,95,0.00,,,0.07,135.00,VWS V14.01,2013-05-22 14:03:00,
2013-05-22 09:08:00,65.7,63.9,29.83,SSW,206,4.0,8.0,94,0.00,,,0.07,134.00,VWS V14.01,2013-05-22 14:08:00,
2013-05-22 09:13:00,65.9,64.1,29.83,SSW,196,2.0,8.0,94,0.00,,,0.07,142.00,VWS V14.01,2013-05-22 14:13:00,
2013-05-22 09:18:00,66.1,64.0,29.84,SSW,207,3.0,8.0,93,0.00,,,0.07,137.00,VWS V14.01,2013-05-22 14:18:00,
2013-05-22 09:23:00,66.3,64.2,29.84,SSW,210,2.0,6.0,93,0.00,,,0.07,174.00,VWS V14.01,2013-05-22 14:23:00,
2013-05-22 09:28:00,66.6,64.5,29.84,SW,234,3.0,8.0,93,0.00,,,0.07,225.00,VWS V14.01,2013-05-22 14:28:00,
2013-05-22 09:33:00,66.8,64.4,29.84,SSW,210,0.0,10.0,92,0.00,,,0.07,262.00,VWS V14.01,2013-05-22 14:33:00,
2013-05-22 09:38:00,67.2,64.8,29.84,SW,233,4.0,10.0,92,0.00,,,0.07,311.00,VWS V14.01,2013-05-22 14:38:00,
2013-05-22 09:43:00,67.5,64.8,29.84,SSW,210,1.0,7.0,91,0.00,,,0.07,376.00,VWS V14.01,2013-05-22 14:43:00,
2013-05-22 09:48:00,67.9,64.9,29.84,SW,218,0.0,9.0,90,0.00,,,0.07,410.00,VWS V14.01,2013-05-22 14:48:00,
2013-05-22 09:53:00,68.2,64.8,29.84,WSW,252,2.0,10.0,89,0.00,,,0.07,392.00,VWS V14.01,2013-05-22 14:53:00,
2013-05-22 09:58:00,68.6,65.2,29.84,WSW,237,1.0,10.0,89,0.00,,,0.07,656.00,VWS V14.01,2013-05-22 14:58:00,
2013-05-22 10:03:00,69.1,65.4,29.84,West,275,4.0,6.0,88,0.00,,,0.07,508.00,VWS V14.01,2013-05-22 15:03:00,
2013-05-22 10:08:00,69.6,65.6,29.84,SSW,192,4.0,10.0,87,0.00,,,0.07,512.00,VWS V14.01,2013-05-22 15:08:00,
2013-05-22 10:13:00,70.1,65.7,29.84,South,178,2.0,6.0,86,0.00,,,0.07,571.00,VWS V14.01,2013-05-22 15:13:00,
2013-05-22 10:18:00,70.5,65.8,29.85,SSE,165,9.0,9.0,85,0.00,,,0.07,615.00,VWS V14.01,2013-05-22 15:18:00,
2013-05-22 10:23:00,70.7,66.0,29.84,South,190,3.0,8.0,85,0.00,,,0.07,364.00,VWS V14.01,2013-05-22 15:23:00,
2013-05-22 10:28:00,71.0,65.9,29.84,SSW,194,1.0,9.0,84,0.00,,,0.07,475.00,VWS V14.01,2013-05-22 15:28:00,
2013-05-22 10:33:00,71.0,65.6,29.85,West,263,1.0,10.0,83,0.00,,,0.07,475.00,VWS V14.01,2013-05-22 15:33:00,
2013-05-22 10:38:00,71.0,65.6,29.85,SW,227,2.0,10.0,83,0.00,,,0.07,302.00,VWS V14.01,2013-05-22 15:38:00,
2013-05-22 10:43:00,70.9,65.5,29.85,SW,229,2.0,10.0,83,0.00,,,0.07,455.00,VWS V14.01,2013-05-22 15:43:00,
2013-05-22 10:48:00,71.3,65.9,29.85,South,180,3.0,10.0,83,0.00,,,0.07,531.00,VWS V14.01,2013-05-22 15:48:00,
2013-05-22 10:53:00,71.7,66.3,29.85,SW,225,1.0,7.0,83,0.00,,,0.07,281.00,VWS V14.01,2013-05-22 15:53:00,
2013-05-22 10:58:00,71.9,66.1,29.85,SSW,195,0.0,9.0,82,0.00,,,0.07,278.00,VWS V14.01,2013-05-22 15:58:00,
2013-05-22 11:03:00,71.7,65.6,29.85,SSW,206,6.0,10.0,81,0.00,,,0.07,290.00,VWS V14.01,2013-05-22 16:03:00,
2013-05-22 11:08:00,72.2,66.4,29.85,West,271,5.0,10.0,82,0.00,,,0.07,290.00,VWS V14.01,2013-05-22 16:08:00,
2013-05-22 11:13:00,72.9,66.4,29.85,SSW,205,0.0,6.0,80,0.00,,,0.07,318.00,VWS V14.01,2013-05-22 16:13:00,
2013-05-22 11:18:00,73.4,66.5,29.85,SW,226,5.0,12.0,79,0.00,,,0.07,434.00,VWS V14.01,2013-05-22 16:18:00,
2013-05-22 11:23:00,73.8,66.9,29.85,WNW,286,5.0,8.0,79,0.00,,,0.07,1194.00,VWS V14.01,2013-05-22 16:23:00,
2013-05-22 11:28:00,74.4,67.1,29.85,SSW,202,4.0,9.0,78,0.00,,,0.07,438.00,VWS V14.01,2013-05-22 16:28:00,
2013-05-22 11:33:00,74.8,66.3,29.85,West,275,5.0,8.0,75,0.00,,,0.07,496.00,VWS V14.01,2013-05-22 16:33:00,
2013-05-22 11:38:00,74.8,66.3,29.85,West,269,1.0,10.0,75,0.00,,,0.07,468.00,VWS V14.01,2013-05-22 16:38:00,
2013-05-22 11:43:00,75.0,66.9,29.85,WNW,284,0.0,9.0,76,0.00,,,0.07,360.00,VWS V14.01,2013-05-22 16:43:00,
2013-05-22 11:48:00,74.8,66.3,29.85,WSW,244,0.0,9.0,75,0.00,,,0.07,322.00,VWS V14.01,2013-05-22 16:48:00,
2013-05-22 11:53:00,74.7,66.6,29.85,WNW,294,2.0,6.0,76,0.00,,,0.07,362.00,VWS V14.01,2013-05-22 16:53:00,
2013-05-22 11:58:00,74.8,66.3,29.85,SSW,200,5.0,8.0,75,0.00,,,0.07,236.00,VWS V14.01,2013-05-22 16:58:00,
2013-05-22 12:03:00,74.8,66.3,29.85,WSW,255,0.0,10.0,75,0.00,,,0.07,441.00,VWS V14.01,2013-05-22 17:03:00,
2013-05-22 12:08:00,74.8,66.3,29.85,WSW,250,0.0,10.0,75,0.00,,,0.07,306.00,VWS V14.01,2013-05-22 17:08:00,
2013-05-22 12:13:00,74.8,66.3,29.85,West,279,0.0,8.0,75,0.00,,,0.07,243.00,VWS V14.01,2013-05-22 17:13:00,
2013-05-22 12:18:00,74.5,66.1,29.85,West,267,2.0,9.0,75,0.00,,,0.07,411.00,VWS V14.01,2013-05-22 17:18:00,
2013-05-22 12:23:00,74.4,66.3,29.85,West,263,0.0,6.0,76,0.00,,,0.07,281.00,VWS V14.01,2013-05-22 17:23:00,
2013-05-22 12:28:00,74.5,66.4,29.85,West,260,0.0,7.0,76,0.00,,,0.07,410.00,VWS V14.01,2013-05-22 17:28:00,
2013-05-22 12:33:00,74.7,66.6,29.85,SW,227,5.0,9.0,76,0.00,,,0.07,410.00,VWS V14.01,2013-05-22 17:33:00,
2013-05-22 12:38:00,75.0,66.9,29.86,SSW,212,4.0,9.0,76,0.00,,,0.07,418.00,VWS V14.01,2013-05-22 17:38:00,
2013-05-22 12:43:00,75.2,66.7,29.86,WSW,238,2.0,7.0,75,0.00,,,0.07,383.00,VWS V14.01,2013-05-22 17:43:00,
2013-05-22 12:48:00,75.4,66.5,29.86,WNW,292,11.0,14.0,74,0.00,,,0.07,302.00,VWS V14.01,2013-05-22 17:48:00,
2013-05-22 12:53:00,75.3,66.1,29.86,West,273,4.0,14.0,73,0.00,,,0.07,359.00,VWS V14.01,2013-05-22 17:53:00,
2013-05-22 12:58:00,75.5,66.2,29.85,SW,217,7.0,14.0,73,0.00,,,0.07,1179.00,VWS V14.01,2013-05-22 17:58:00,
2013-05-22 13:03:00,76.4,66.7,29.85,West,268,0.0,13.0,72,0.00,,,0.07,1179.00,VWS V14.01,2013-05-22 18:03:00,
2013-05-22 13:08:00,77.1,66.6,29.85,West,267,7.0,13.0,70,0.00,,,0.07,1072.00,VWS V14.01,2013-05-22 18:08:00,
2013-05-22 13:13:00,77.4,66.4,29.85,WSW,252,2.0,12.0,69,0.00,,,0.07,1062.00,VWS V14.01,2013-05-22 18:13:00,
2013-05-22 13:18:00,77.4,66.9,29.85,SW,215,3.0,12.0,70,0.00,,,0.07,1223.00,VWS V14.01,2013-05-22 18:18:00,
2013-05-22 13:23:00,77.9,66.9,29.84,WSW,247,0.0,10.0,69,0.00,,,0.07,1310.00,VWS V14.01,2013-05-22 18:23:00,
2013-05-22 13:28:00,78.5,67.5,29.84,SW,229,0.0,10.0,69,0.00,,,0.07,1192.00,VWS V14.01,2013-05-22 18:28:00,
2013-05-22 13:33:00,79.2,66.4,29.84,West,265,11.0,12.0,65,0.00,,,0.07,1218.00,VWS V14.01,2013-05-22 18:33:00,
2013-05-22 13:38:00,79.6,66.8,29.84,WNW,285,7.0,15.0,65,0.00,,,0.07,1183.00,VWS V14.01,2013-05-22 18:38:00,
2013-05-22 13:43:00,79.6,67.2,29.84,SW,221,7.0,14.0,66,0.00,,,0.07,1143.00,VWS V14.01,2013-05-22 18:43:00,
2013-05-22 13:48:00,79.5,66.7,29.84,West,259,3.0,14.0,65,0.00,,,0.07,1055.00,VWS V14.01,2013-05-22 18:48:00,
2013-05-22 13:53:00,79.6,66.4,29.84,WSW,248,4.0,12.0,64,0.00,,,0.07,1086.00,VWS V14.01,2013-05-22 18:53:00,
2013-05-22 13:58:00,80.0,67.2,29.84,West,261,1.0,12.0,65,0.00,,,0.07,1086.00,VWS V14.01,2013-05-22 18:58:00,
2013-05-22 14:03:00,79.7,66.9,29.84,West,261,5.0,10.0,65,0.00,,,0.07,248.00,VWS V14.01,2013-05-22 19:03:00,
2013-05-22 14:08:00,79.3,66.5,29.84,WNW,288,12.0,12.0,65,0.00,,,0.07,1099.00,VWS V14.01,2013-05-22 19:08:00,
2013-05-22 14:13:00,79.7,66.5,29.84,West,261,7.0,14.0,64,0.00,,,0.07,1106.00,VWS V14.01,2013-05-22 19:13:00,
2013-05-22 14:18:00,80.2,66.5,29.84,WSW,250,5.0,16.0,63,0.00,,,0.07,1063.00,VWS V14.01,2013-05-22 19:18:00,
2013-05-22 14:23:00,80.6,66.4,29.84,West,259,3.0,10.0,62,0.00,,,0.07,257.00,VWS V14.01,2013-05-22 19:23:00,
2013-05-22 14:28:00,80.6,66.8,29.84,WSW,246,2.0,10.0,63,0.00,,,0.07,1148.00,VWS V14.01,2013-05-22 19:28:00,
2013-05-22 14:33:00,80.6,65.9,29.84,WSW,256,5.0,10.0,61,0.00,,,0.07,276.00,VWS V14.01,2013-05-22 19:33:00,
2013-05-22 14:38:00,80.3,65.6,29.84,West,273,3.0,12.0,61,0.00,,,0.07,267.00,VWS V14.01,2013-05-22 19:38:00,
2013-05-22 14:43:00,80.0,65.8,29.84,West,272,1.0,12.0,62,0.00,,,0.07,1046.00,VWS V14.01,2013-05-22 19:43:00,
2013-05-22 14:48:00,79.8,65.6,29.84,West,273,0.0,12.0,62,0.00,,,0.07,237.00,VWS V14.01,2013-05-22 19:48:00,
2013-05-22 14:53:00,79.6,65.0,29.84,WSW,253,5.0,10.0,61,0.00,,,0.07,1002.00,VWS V14.01,2013-05-22 19:53:00,
2013-05-22 14:58:00,80.3,65.6,29.83,SW,232,3.0,13.0,61,0.00,,,0.07,958.00,VWS V14.01,2013-05-22 19:58:00,
2013-05-22 15:03:00,80.9,65.2,29.83,WSW,246,1.0,12.0,59,0.00,,,0.07,983.00,VWS V14.01,2013-05-22 20:03:00,
2013-05-22 15:08:00,81.2,65.5,29.83,West,259,5.0,12.0,59,0.00,,,0.07,977.00,VWS V14.01,2013-05-22 20:08:00,
2013-05-22 15:13:00,81.5,66.3,29.83,West,280,5.0,7.0,60,0.00,,,0.07,958.00,VWS V14.01,2013-05-22 20:13:00,
2013-05-22 15:18:00,81.6,65.9,29.83,West,276,4.0,9.0,59,0.00,,,0.07,981.00,VWS V14.01,2013-05-22 20:18:00,
2013-05-22 15:23:00,81.1,65.9,29.83,West,267,2.0,6.0,60,0.00,,,0.07,960.00,VWS V14.01,2013-05-22 20:23:00,
2013-05-22 15:28:00,80.9,65.7,29.83,WSW,257,2.0,10.0,60,0.00,,,0.07,925.00,VWS V14.01,2013-05-22 20:28:00,
2013-05-22 15:33:00,80.8,66.1,29.83,West,269,4.0,10.0,61,0.00,,,0.07,882.00,VWS V14.01,2013-05-22 20:33:00,
2013-05-22 15:38:00,81.5,64.3,29.83,West,271,6.0,10.0,56,0.00,,,0.07,844.00,VWS V14.01,2013-05-22 20:38:00,
2013-05-22 15:43:00,81.9,66.2,29.83,WSW,240,2.0,8.0,59,0.00,,,0.07,833.00,VWS V14.01,2013-05-22 20:43:00,
2013-05-22 15:48:00,81.7,66.0,29.82,West,277,2.0,11.0,59,0.00,,,0.07,854.00,VWS V14.01,2013-05-22 20:48:00,
2013-05-22 15:53:00,81.2,65.5,29.82,WSW,252,0.0,8.0,59,0.00,,,0.07,352.00,VWS V14.01,2013-05-22 20:53:00,
2013-05-22 15:58:00,80.8,65.6,29.82,SW,225,4.0,8.0,60,0.00,,,0.07,828.00,VWS V14.01,2013-05-22 20:58:00,
2013-05-22 16:03:00,80.9,65.7,29.82,SW,229,4.0,13.0,60,0.00,,,0.07,793.00,VWS V14.01,2013-05-22 21:03:00,
2013-05-22 16:08:00,81.2,66.5,29.82,WNW,288,8.0,13.0,61,0.00,,,0.07,796.00,VWS V14.01,2013-05-22 21:08:00,
2013-05-22 16:13:00,81.6,65.9,29.82,West,278,4.0,11.0,59,0.00,,,0.07,770.00,VWS V14.01,2013-05-22 21:13:00,
2013-05-22 16:18:00,82.0,66.8,29.82,West,277,6.0,11.0,60,0.00,,,0.07,733.00,VWS V14.01,2013-05-22 21:18:00,
2013-05-22 16:23:00,82.2,66.5,29.82,WSW,239,1.0,8.0,59,0.00,,,0.07,751.00,VWS V14.01,2013-05-22 21:23:00,
2013-05-22 16:28:00,82.1,65.9,29.82,SW,236,0.0,8.0,58,0.00,,,0.07,260.00,VWS V14.01,2013-05-22 21:28:00,
2013-05-22 16:33:00,82.1,66.4,29.81,SW,225,1.0,4.0,59,0.00,,,0.07,223.00,VWS V14.01,2013-05-22 21:33:00,
2013-05-22 16:38:00,82.0,66.3,29.81,SW,222,10.0,10.0,59,0.00,,,0.07,710.00,VWS V14.01,2013-05-22 21:38:00,
2013-05-22 16:43:00,81.8,65.1,29.82,WNW,290,7.0,9.0,57,0.00,,,0.07,684.00,VWS V14.01,2013-05-22 21:43:00,
2013-05-22 16:48:00,81.8,65.1,29.82,WSW,248,3.0,11.0,57,0.00,,,0.07,617.00,VWS V14.01,2013-05-22 21:48:00,
2013-05-22 16:53:00,81.8,64.6,29.82,WSW,238,0.0,7.0,56,0.00,,,0.07,601.00,VWS V14.01,2013-05-22 21:53:00,
2013-05-22 16:58:00,81.8,65.6,29.82,SW,234,5.0,7.0,58,0.00,,,0.07,591.00,VWS V14.01,2013-05-22 21:58:00,
2013-05-22 17:03:00,81.0,64.3,29.81,SW,225,0.0,9.0,57,0.00,,,0.07,577.00,VWS V14.01,2013-05-22 22:03:00,
2013-05-22 17:08:00,81.0,65.3,29.81,WSW,257,0.0,9.0,59,0.00,,,0.07,570.00,VWS V14.01,2013-05-22 22:08:00,
2013-05-22 17:13:00,80.9,64.2,29.81,West,271,4.0,7.0,57,0.00,,,0.07,571.00,VWS V14.01,2013-05-22 22:13:00,
2013-05-22 17:18:00,80.9,65.2,29.82,WSW,252,0.0,7.0,59,0.00,,,0.07,580.00,VWS V14.01,2013-05-22 22:18:00,
2013-05-22 17:23:00,80.9,65.2,29.82,WSW,253,2.0,6.0,59,0.00,,,0.07,527.00,VWS V14.01,2013-05-22 22:23:00,
2013-05-22 17:28:00,81.3,66.1,29.82,WSW,248,2.0,7.0,60,0.00,,,0.07,533.00,VWS V14.01,2013-05-22 22:28:00,
2013-05-22 17:33:00,81.4,65.7,29.82,SSW,205,0.0,4.0,59,0.00,,,0.07,487.00,VWS V14.01,2013-05-22 22:33:00,
2013-05-22 17:38:00,81.7,65.0,29.82,West,277,1.0,9.0,57,0.00,,,0.07,469.00,VWS V14.01,2013-05-22 22:38:00,
2013-05-22 17:43:00,82.1,65.4,29.82,West,280,3.0,5.0,57,0.00,,,0.07,439.00,VWS V14.01,2013-05-22 22:43:00,
2013-05-22 17:48:00,82.3,66.1,29.82,WNW,288,6.0,10.0,58,0.00,,,0.07,420.00,VWS V14.01,2013-05-22 22:48:00,
2013-05-22 17:53:00,81.9,65.2,29.82,West,269,3.0,8.0,57,0.00,,,0.07,401.00,VWS V14.01,2013-05-22 22:53:00,
2013-05-22 17:58:00,81.4,65.2,29.82,WSW,237,0.0,8.0,58,0.00,,,0.07,383.00,VWS V14.01,2013-05-22 22:58:00,
2013-05-22 18:03:00,81.4,65.7,29.82,SW,234,5.0,9.0,59,0.00,,,0.07,362.00,VWS V14.01,2013-05-22 23:03:00,
2013-05-22 18:08:00,81.4,65.7,29.81,WSW,257,2.0,9.0,59,0.00,,,0.07,343.00,VWS V14.01,2013-05-22 23:08:00,
2013-05-22 18:13:00,81.3,64.6,29.82,SW,219,1.0,7.0,57,0.00,,,0.07,325.00,VWS V14.01,2013-05-22 23:13:00,
2013-05-22 18:18:00,81.1,64.9,29.82,WSW,246,2.0,7.0,58,0.00,,,0.07,301.00,VWS V14.01,2013-05-22 23:18:00,
2013-05-22 18:23:00,81.0,65.8,29.82,West,273,0.0,3.0,60,0.00,,,0.07,281.00,VWS V14.01,2013-05-22 23:23:00,
2013-05-22 18:28:00,80.7,65.5,29.82,WSW,253,0.0,8.0,60,0.00,,,0.07,264.00,VWS V14.01,2013-05-22 23:28:00,
2013-05-22 18:33:00,80.4,65.3,29.82,WSW,254,0.0,5.0,60,0.00,,,0.07,246.00,VWS V14.01,2013-05-22 23:33:00,
2013-05-22 18:38:00,80.3,65.2,29.82,West,265,0.0,6.0,60,0.00,,,0.07,227.00,VWS V14.01,2013-05-22 23:38:00,
2013-05-22 18:43:00,80.2,65.5,29.82,WSW,254,0.0,8.0,61,0.00,,,0.07,206.00,VWS V14.01,2013-05-22 23:43:00,
2013-05-22 18:48:00,79.9,65.3,29.82,SW,226,5.0,8.0,61,0.00,,,0.07,185.00,VWS V14.01,2013-05-22 23:48:00,
2013-05-22 18:53:00,79.5,65.3,29.82,West,263,2.0,7.0,62,0.00,,,0.07,163.00,VWS V14.01,2013-05-22 23:53:00,
2013-05-22 18:58:00,79.4,65.3,29.82,SW,227,2.0,7.0,62,0.00,,,0.07,142.00,VWS V14.01,2013-05-22 23:58:00,
2013-05-22 19:03:00,79.3,65.2,29.82,West,270,1.0,4.0,62,0.00,,,0.07,125.00,VWS V14.01,2013-05-23 00:03:00,
2013-05-22 19:08:00,79.2,65.1,29.82,WSW,258,3.0,9.0,62,0.00,,,0.07,104.00,VWS V14.01,2013-05-23 00:08:00,
2013-05-22 19:13:00,79.1,65.4,29.82,WSW,239,0.0,5.0,63,0.00,,,0.07,90.00,VWS V14.01,2013-05-23 00:13:00,
2013-05-22 19:18:00,79.1,65.4,29.83,WSW,250,0.0,6.0,63,0.00,,,0.07,74.00,VWS V14.01,2013-05-23 00:18:00,
2013-05-22 19:23:00,78.9,65.7,29.83,West,261,0.0,4.0,64,0.00,,,0.07,58.00,VWS V14.01,2013-05-23 00:23:00,
2013-05-22 19:28:00,78.7,65.5,29.83,WSW,258,0.0,4.0,64,0.00,,,0.07,44.00,VWS V14.01,2013-05-23 00:28:00,
2013-05-22 19:33:00,78.7,66.0,29.83,WSW,252,0.0,3.0,65,0.00,,,0.07,32.00,VWS V14.01,2013-05-23 00:33:00,
2013-05-22 19:38:00,78.4,65.2,29.83,WSW,250,0.0,3.0,64,0.00,,,0.07,23.00,VWS V14.01,2013-05-23 00:38:00,
2013-05-22 19:43:00,78.1,64.9,29.84,WSW,242,0.0,4.0,64,0.00,,,0.07,16.00,VWS V14.01,2013-05-23 00:43:00,
2013-05-22 19:48:00,77.6,64.5,29.83,WSW,242,0.0,4.0,64,0.00,,,0.07,12.00,VWS V14.01,2013-05-23 00:48:00,
2013-05-22 19:53:00,77.2,64.5,29.83,WSW,242,0.0,3.0,65,0.00,,,0.07,9.00,VWS V14.01,2013-05-23 00:53:00,
2013-05-22 19:58:00,76.8,64.2,29.83,WSW,242,0.0,3.0,65,0.00,,,0.07,7.00,VWS V14.01,2013-05-23 00:58:00,
2013-05-22 20:03:00,76.3,64.1,29.83,WSW,240,0.0,4.0,66,0.00,,,0.07,0.00,VWS V14.01,2013-05-23 01:03:00,
2013-05-22 20:08:00,75.9,63.7,29.83,WSW,240,0.0,4.0,66,0.00,,,0.07,0.00,VWS V14.01,2013-05-23 01:08:00,
2013-05-22 20:13:00,75.5,63.8,29.83,WSW,240,0.0,1.0,67,0.00,,,0.07,0.00,VWS V14.01,2013-05-23 01:13:00,
2013-05-22 20:18:00,75.1,63.4,29.83,WSW,240,0.0,1.0,67,0.00,,,0.07,0.00,VWS V14.01,2013-05-23 01:18:00,
2013-05-22 20:23:00,74.8,63.1,29.84,WSW,237,0.0,2.0,67,0.00,,,0.07,0.00,VWS V14.01,2013-05-23 01:23:00,
2013-05-22 20:28:00,74.5,63.3,29.83,WSW,240,0.0,3.0,68,0.00,,,0.07,0.00,VWS V14.01,2013-05-23 01:28:00,
2013-05-22 20:33:00,74.4,63.2,29.84,WSW,240,0.0,1.0,68,0.00,,,0.07,0.00,VWS V14.01,2013-05-23 01:33:00,
2013-05-22 20:38:00,74.2,63.4,29.84,WSW,240,0.0,1.0,69,0.00,,,0.07,0.00,VWS V14.01,2013-05-23 01:38:00,
2013-05-22 20:43:00,74.0,63.2,29.84,WSW,240,0.0,1.0,69,0.00,,,0.07,0.00,VWS V14.01,2013-05-23 01:43:00,
2013-05-22 20:48:00,73.7,63.3,29.84,WSW,240,0.0,1.0,70,0.00,,,0.07,0.00,VWS V14.01,2013-05-23 01:48:00,
2013-05-22 20:53:00,73.5,63.1,29.85,WSW,240,0.0,0.0,70,0.00,,,0.07,0.00,VWS V14.01,2013-05-23 01:53:00,
2013-05-22 20:58:00,73.2,63.2,29.84,WSW,240,0.0,0.0,71,0.00,,,0.07,0.00,VWS V14.01,2013-05-23 01:58:00,
2013-05-22 21:03:00,72.8,63.3,29.85,WSW,240,0.0,0.0,72,0.00,,,0.07,0.00,VWS V14.01,2013-05-23 02:03:00,
2013-05-22 21:08:00,72.4,63.3,29.85,WSW,240,0.0,0.0,73,0.00,,,0.07,0.00,VWS V14.01,2013-05-23 02:08:00,
2013-05-22 21:13:00,72.2,63.5,29.85,WSW,240,0.0,0.0,74,0.00,,,0.07,0.00,VWS V14.01,2013-05-23 02:13:00,
2013-05-22 21:18:00,72.0,63.7,29.85,WSW,240,0.0,1.0,75,0.00,,,0.07,0.00,VWS V14.01,2013-05-23 02:18:00,
2013-05-22 21:23:00,71.8,63.8,29.85,WSW,240,0.0,0.0,76,0.00,,,0.07,0.00,VWS V14.01,2013-05-23 02:23:00,
2013-05-22 21:28:00,71.6,63.6,29.86,WSW,240,0.0,0.0,76,0.00,,,0.07,0.00,VWS V14.01,2013-05-23 02:28:00,
2013-05-22 21:33:00,71.4,63.8,29.86,WSW,240,0.0,0.0,77,0.00,,,0.07,0.00,VWS V14.01,2013-05-23 02:33:00,
2013-05-22 21:38:00,71.2,63.6,29.86,WSW,240,1.0,1.0,77,0.00,,,0.07,0.00,VWS V14.01,2013-05-23 02:38:00,
2013-05-22 21:43:00,71.0,63.4,29.86,WSW,240,0.0,1.0,77,0.00,,,0.07,0.00,VWS V14.01,2013-05-23 02:43:00,
2013-05-22 21:48:00,71.0,63.4,29.86,WSW,240,0.0,1.0,77,0.00,,,0.07,0.00,VWS V14.01,2013-05-23 02:48:00,
2013-05-22 21:53:00,71.0,63.8,29.87,WSW,240,0.0,0.0,78,0.00,,,0.07,0.00,VWS V14.01,2013-05-23 02:53:00,
2013-05-22 21:58:00,70.8,63.6,29.87,WSW,240,0.0,1.0,78,0.00,,,0.07,0.00,VWS V14.01,2013-05-23 02:58:00,
2013-05-22 22:03:00,70.7,63.5,29.87,WSW,240,0.0,1.0,78,0.00,,,0.07,0.00,VWS V14.01,2013-05-23 03:03:00,
2013-05-22 22:08:00,70.6,63.8,29.87,WSW,240,0.0,1.0,79,0.00,,,0.07,0.00,VWS V14.01,2013-05-23 03:08:00,
2013-05-22 22:13:00,70.4,63.6,29.87,WSW,240,0.0,0.0,79,0.00,,,0.07,0.00,VWS V14.01,2013-05-23 03:13:00,
2013-05-22 22:18:00,70.2,63.8,29.87,WSW,240,0.0,0.0,80,0.00,,,0.07,0.00,VWS V14.01,2013-05-23 03:18:00,
2013-05-22 22:23:00,70.0,63.5,29.87,WSW,240,0.0,0.0,80,0.00,,,0.07,0.00,VWS V14.01,2013-05-23 03:23:00,
2013-05-22 22:28:00,69.8,63.7,29.87,WSW,240,0.0,1.0,81,0.00,,,0.07,0.00,VWS V14.01,2013-05-23 03:28:00,
2013-05-22 22:33:00,69.7,63.6,29.87,WSW,240,0.0,0.0,81,0.00,,,0.07,0.00,VWS V14.01,2013-05-23 03:33:00,
2013-05-22 22:38:00,69.5,63.8,29.87,WSW,240,0.0,1.0,82,0.00,,,0.07,0.00,VWS V14.01,2013-05-23 03:38:00,
2013-05-22 22:43:00,69.4,63.7,29.87,WSW,240,0.0,1.0,82,0.00,,,0.07,0.00,VWS V14.01,2013-05-23 03:43:00,
2013-05-22 22:48:00,69.2,63.5,29.87,WSW,240,0.0,1.0,82,0.00,,,0.07,0.00,VWS V14.01,2013-05-23 03:48:00,
2013-05-22 22:53:00,69.1,63.7,29.88,WSW,240,0.0,1.0,83,0.00,,,0.07,0.00,VWS V14.01,2013-05-23 03:53:00,
2013-05-22 22:58:00,68.9,63.5,29.87,WSW,240,0.0,1.0,83,0.00,,,0.07,0.00,VWS V14.01,2013-05-23 03:58:00,
2013-05-22 23:01:00,68.8,63.4,29.88,WSW,240,0.0,0.0,83,0.00,,,0.07,0.00,VWS V14.01,2013-05-23 04:01:00,
2013-05-22 23:06:00,68.7,63.7,29.88,WSW,240,0.0,0.0,84,0.00,,,0.07,0.00,VWS V14.01,2013-05-23 04:06:00,
2013-05-22 23:11:00,68.6,63.6,29.88,WSW,240,0.0,0.0,84,0.00,,,0.07,0.00,VWS V14.01,2013-05-23 04:11:00,
2013-05-22 23:16:00,68.5,63.5,29.87,WSW,240,0.0,1.0,84,0.00,,,0.07,0.00,VWS V14.01,2013-05-23 04:16:00,
2013-05-22 23:21:00,68.4,63.7,29.88,WSW,240,0.0,1.0,85,0.00,,,0.07,0.00,VWS V14.01,2013-05-23 04:21:00,
2013-05-22 23:26:00,68.3,63.6,29.88,WSW,240,0.0,1.0,85,0.00,,,0.07,0.00,VWS V14.01,2013-05-23 04:26:00,
2013-05-22 23:31:00,68.3,63.6,29.88,WSW,240,0.0,0.0,85,0.00,,,0.07,0.00,VWS V14.01,2013-05-23 04:31:00,
2013-05-22 23:36:00,68.2,63.5,29.88,WSW,240,0.0,0.0,85,0.00,,,0.07,0.00,VWS V14.01,2013-05-23 04:36:00,
2013-05-22 23:41:00,68.2,63.5,29.88,WSW,240,1.0,1.0,85,0.00,,,0.07,0.00,VWS V14.01,2013-05-23 04:41:00,
2013-05-22 23:46:00,68.2,63.5,29.88,WSW,240,0.0,2.0,85,0.00,,,0.07,0.00,VWS V14.01,2013-05-23 04:46:00,
2013-05-22 23:51:00,68.2,63.5,29.88,WSW,240,0.0,3.0,85,0.00,,,0.07,0.00,VWS V14.01,2013-05-23 04:51:00,
2013-05-22 23:56:00,68.3,63.6,29.88,WSW,240,0.0,3.0,85,0.00,,,0.07,0.00,VWS V14.01,2013-05-23 04:56:00,